Terug naar catalogus

STARLINK-34477

ActiefCommunicatieVLEO
NORAD 64487·PAYLOAD·🇺🇸 United States

Gelanceerd Jun 23, 2025 vanaf Cape Canaveral Space Force Station

Loading…

Volgende Passages (komende 24 uur)

TLE

VersSource: CelesTrak SupGP

Epoch: Sep 14, 2026, 22:43 UTC

1 64487C 25133R   26257.94701389  .00029635  00000+0  87580-3 0  2578
2 64487  53.1589 315.7652 0001208  85.0854 219.9097 15.34367433    19

Volg STARLINK-34477 in realtime met AllMySat

Download on the App Store